QPF
0.00 0.00 0.00 0.00 0.00 0.00 0.00 0.00 0.00 0.00 0.00 0.00 0.00 0.00 0.00 0.00 0.02 0.07 0.07 0.05 0.02 0.00 0.00 0.00 0.00 0.00 0.00 0.01 0.01 0.00 0.00 0.00 0.00 0.00 0.00 0.00 0.00 0.00 0.00 0.00 0.00 0.00 0.00 0.00
0.00 0.00 0.00 0.00 0.00 0.00 0.00 0.00 0.00 0.00 0.00 0.00 0.00 0.00 0.00 0.00 0.01 0.02 0.02 0.02 0.01 0.00 0.00 0.00 0.00 0.00 0.00 0.00 0.00 0.00 0.00 0.00 0.00 0.00 0.00 0.00 0.00 0.00 0.00 0.00 0.00 0.00 0.00 0.00
0.00 0.00 0.00 0.00 0.00 0.00 0.00 0.00 0.00 0.00 0.00 0.00 0.00 0.00 0.00 0.00 0.00 0.03 0.01 0.04 0.04 0.03 0.01 0.00 0.00 0.00 0.00 0.00 0.00 0.00 0.00 0.00 0.00 0.00 0.00 0.00 0.00 0.00 0.00 0.00 0.00 0.00 0.00 0.00
0.00 0.00 0.00 0.00 0.00 0.00 0.00 0.00 0.00 0.00 0.00 0.00 0.00 0.00 0.00 0.00 0.00 0.01 0.01 0.02 0.08 0.08 0.02 0.00 0.00 0.00 0.00 0.00 0.00 0.00 0.00 0.00 0.00 0.00 0.00 0.00 0.00 0.00 0.00 0.00 0.00 0.00 0.00 0.00
0.00 0.00 0.00 0.00 0.00 0.00 0.00 0.00 0.00 0.00 0.00 0.00 0.00 0.00 0.00 0.00 0.00 0.00 0.01 0.00 0.00 0.04 0.01 0.01 0.01 0.00 0.00 0.00 0.00 0.00 0.00 0.00 0.00 0.00 0.00 0.00 0.00 0.00 0.00 0.00 0.00 0.00 0.00 0.00
0.00 0.00 0.00 0.00 0.00 0.00 0.00 0.00 0.00 0.00 0.00 0.00 0.00 0.00 0.00 0.00 0.00 0.00 0.00 0.00 0.00 0.05 0.08 0.04 0.01 0.00 0.00 0.00 0.00 0.00 0.00 0.00 0.00 0.00 0.00 0.00 0.00 0.00 0.00 0.00 0.00 0.00 0.00 0.00
0.00 0.00 0.00 0.00 0.00 0.00 0.00 0.00 0.00 0.00 0.00 0.00 0.00 0.00 0.00 0.00 0.00 0.00 0.00 0.00 0.00 0.02 0.07 0.07 0.05 0.01 0.01 0.00 0.00 0.00 0.00 0.00 0.00 0.00 0.00 0.00 0.00 0.00 0.00 0.00 0.00 0.00 0.00 0.00
0.00 0.00 0.00 0.00 0.00 0.00 0.00 0.00 0.00 0.00 0.00 0.00 0.00 0.00 0.00 0.00 0.00 0.00 0.00 0.00 0.00 0.00 0.00 0.01 0.00 0.00 0.01 0.02 0.02 0.00 0.00 0.00 0.00 0.00 0.00 0.01 0.01 0.00 0.00 0.00 0.00 0.00 0.00 0.00
0.00 0.00 0.00 0.00 0.00 0.00 0.00 0.00 0.00 0.00 0.00 0.00 0.00 0.00 0.00 0.00 0.00 0.00 0.00 0.00 0.00 0.00 0.00 0.00 0.00 0.00 0.00 0.00 0.03 0.04 0.03 0.02 0.00 0.00 0.00 0.00 0.00 0.00 0.00 0.00 0.00 0.00 0.00 0.00
0.00 0.00 0.00 0.00 0.00 0.00 0.00 0.00 0.00 0.00 0.00 0.00 0.00 0.00 0.00 0.00 0.00 0.00 0.00 0.00 0.00 0.00 0.00 0.00 0.00 0.00 0.00 0.00 0.00 0.01 0.02 0.02 0.03 0.02 0.01 0.01 0.00 0.00 0.00 0.00 0.00 0.00 0.00 0.00
0.00 0.00 0.00 0.00 0.00 0.00 0.00 0.00 0.00 0.00 0.00 0.00 0.00 0.00 0.00 0.00 0.00 0.00 0.00 0.00 0.00 0.00 0.00 0.00 0.00 0.00 0.00 0.00 0.00 0.00 0.00 0.00 0.00 0.00 0.00 0.00 0.00 0.00 0.00 0.00 0.00 0.00 0.00 0.00
0.00 0.00 0.00 0.00 0.00 0.00 0.00 0.00 0.00 0.00 0.00 0.00 0.00 0.00 0.00 0.00 0.00 0.00 0.00 0.00 0.00 0.00 0.00 0.00 0.00 0.00 0.00 0.00 0.00 0.00 0.00 0.00 0.00 0.00 0.00 0.00 0.00 0.00 0.00 0.00 0.00 0.00 0.00 0.00
0.00 0.00 0.00 0.00 0.00 0.00 0.00 0.00 0.00 0.00 0.00 0.00 0.00 0.00 0.00 0.00 0.00 0.00 0.00 0.00 0.00 0.00 0.00 0.00 0.00 0.00 0.00 0.00 0.00 0.00 0.00 0.00 0.00 0.00 0.00 0.00 0.00 0.00 0.00 0.00 0.00 0.00 0.00 0.00
0.00 0.00 0.00 0.00 0.00 0.00 0.00 0.00 0.00 0.00 0.00 0.00 0.00 0.00 0.00 0.00 0.00 0.00 0.00 0.00 0.00 0.00 0.00 0.00 0.00 0.00 0.00 0.00 0.00 0.00 0.00 0.00 0.00 0.00 0.00 0.00 0.00 0.00 0.00 0.00 0.00 0.00 0.00 0.00
0.00 0.00 0.00 0.00 0.00 0.00 0.00 0.00 0.00 0.00 0.00 0.00 0.00 0.00 0.00 0.00 0.00 0.00 0.00 0.00 0.00 0.00 0.00 0.00 0.00 0.00 0.00 0.00 0.00 0.00 0.00 0.00 0.00 0.00 0.00 0.00 0.00 0.00 0.00 0.00 0.00 0.00 0.00 0.00
0.00 0.00 0.00 0.00 0.00 0.00 0.00 0.00 0.00 0.00 0.00 0.00 0.00 0.00 0.00 0.00 0.00 0.00 0.00 0.00 0.00 0.00 0.00 0.00 0.00 0.00 0.00 0.00 0.00 0.00 0.00 0.00 0.00 0.00 0.00 0.00 0.00 0.00 0.00 0.00 0.00 0.00 0.00 0.00
0.00 0.00 0.00 0.00 0.00 0.00 0.00 0.00 0.00 0.00 0.00 0.00 0.00 0.00 0.00 0.00 0.00 0.00 0.00 0.00 0.00 0.00 0.00 0.00 0.00 0.00 0.00 0.00 0.00 0.00 0.00 0.00 0.00 0.00 0.00 0.00 0.00 0.00 0.00 0.00 0.00 0.00 0.00 0.00
0.00 0.00 0.00 0.00 0.00 0.00 0.00 0.00 0.00 0.00 0.00 0.00 0.00 0.00 0.00 0.00 0.00 0.00 0.00 0.00 0.00 0.00 0.00 0.00 0.00 0.00 0.00 0.00 0.00 0.00 0.00 0.00 0.00 0.00 0.00 0.00 0.00 0.00 0.00 0.00 0.00 0.00 0.00 0.00
0.00 0.00 0.00 0.00 0.00 0.00 0.00 0.00 0.00 0.00 0.00 0.00 0.00 0.00 0.00 0.00 0.00 0.00 0.00 0.00 0.00 0.00 0.00 0.00 0.00 0.00 0.00 0.00 0.00 0.00 0.00 0.00 0.00 0.00 0.00 0.00 0.00 0.00 0.00 0.00 0.00 0.00 0.00 0.00
0.00 0.00 0.00 0.00 0.00 0.00 0.00 0.00 0.00 0.00 0.00 0.00 0.00 0.00 0.00 0.00 0.00 0.00 0.00 0.00 0.00 0.00 0.00 0.00 0.00 0.00 0.00 0.00 0.00 0.00 0.00 0.00 0.00 0.00 0.00 0.00 0.00 0.00 0.00 0.00 0.00 0.00 0.00 0.00
0.00 0.00 0.00 0.00 0.00 0.00 0.00 0.00 0.00 0.00 0.00 0.00 0.00 0.00 0.00 0.00 0.00 0.00 0.00 0.00 0.00 0.00 0.00 0.00 0.00 0.00 0.00 0.00 0.00 0.00 0.00 0.00 0.00 0.00 0.00 0.00 0.00 0.00 0.00 0.00 0.00 0.00 0.00 0.00
0.00 0.00 0.00 0.00 0.00 0.00 0.00 0.00 0.00 0.00 0.00 0.00 0.00 0.00 0.00 0.00 0.00 0.00 0.00 0.00 0.00 0.00 0.00 0.00 0.00 0.00 0.00 0.00 0.00 0.00 0.00 0.00 0.00 0.00 0.00 0.00 0.00 0.00 0.00 0.00 0.00 0.00 0.00 0.00
0.00 0.00 0.00 0.00 0.00 0.00 0.00 0.00 0.00 0.00 0.00 0.00 0.00 0.00 0.00 0.00 0.00 0.00 0.00 0.00 0.00 0.00 0.00 0.00 0.00 0.00 0.00 0.00 0.00 0.00 0.00 0.00 0.00 0.00 0.00 0.00 0.00 0.00 0.00 0.00 0.00 0.00 0.00 0.00
0.00 0.00 0.00 0.00 0.00 0.00 0.00 0.00 0.00 0.00 0.00 0.00 0.00 0.00 0.00 0.00 0.00 0.00 0.00 0.00 0.00 0.00 0.00 0.00 0.00 0.00 0.00 0.00 0.00 0.00 0.00 0.00 0.00 0.00 0.00 0.00 0.00 0.00 0.00 0.00 0.00 0.00 0.00 0.00
0.00 0.00 0.00 0.00 0.00 0.00 0.00 0.00 0.00 0.00 0.00 0.00 0.00 0.00 0.00 0.00 0.00 0.00 0.00 0.00 0.00 0.00 0.00 0.00 0.00 0.00 0.00 0.00 0.00 0.00 0.00 0.00 0.00 0.00 0.00 0.00 0.00 0.00 0.00 0.00 0.00 0.00 0.00 0.00
0.00 0.00 0.00 0.00 0.00 0.00 0.00 0.00 0.00 0.00 0.00 0.00 0.00 0.00 0.00 0.00 0.00 0.00 0.00 0.00 0.00 0.00 0.00 0.00 0.00 0.00 0.00 0.00 0.00 0.00 0.00 0.00 0.00 0.00 0.00 0.00 0.00 0.00 0.00 0.00 0.00 0.00 0.00 0.00
MSLP
1017.13 1017.91 1018.15 1018.17 1018.23 1018.16 1018.09 1017.81 1017.01 1015.24 1014.28 1013.94 1013.46 1012.98 1012.55 1012.21 1011.98 1012.22 1012.47 1012.85 1012.93 1013.05 1013.28 1013.51 1013.12 1012.81 1013.38 1014.47 1015.49 1016.07 1015.76 1016.01 1016.86 1017.77 1018.67 1019.29 1019.57 1019.74 1019.86 1019.76 1019.65 1019.78 1019.95 1020.31
1017.75 1017.93 1017.75 1017.69 1017.56 1017.76 1017.53 1017.39 1016.73 1015.20 1014.52 1014.30 1013.80 1013.52 1013.10 1012.78 1012.66 1012.40 1012.52 1013.05 1012.94 1013.17 1013.28 1013.54 1013.00 1013.34 1013.82 1014.20 1015.59 1016.09 1016.31 1016.22 1016.57 1017.06 1017.82 1018.47 1018.99 1019.32 1019.40 1019.43 1019.54 1019.60 1019.76 1020.00
1018.23 1017.74 1017.53 1017.56 1017.44 1017.35 1017.15 1017.31 1016.97 1016.80 1015.20 1014.78 1014.33 1014.36 1014.16 1013.71 1013.22 1012.94 1012.78 1012.49 1012.65 1013.06 1013.16 1013.59 1014.27 1014.20 1013.67 1014.19 1014.78 1015.62 1016.21 1016.74 1016.62 1017.12 1017.70 1018.34 1018.80 1019.13 1019.31 1019.38 1019.53 1019.58 1019.70 1019.77
1018.08 1017.72 1017.80 1017.46 1017.36 1017.59 1017.25 1017.07 1016.91 1016.51 1016.15 1016.29 1015.75 1016.29 1015.30 1014.85 1014.30 1013.91 1013.64 1013.47 1013.21 1013.09 1013.51 1013.60 1013.81 1013.61 1014.09 1013.07 1014.32 1015.05 1015.79 1016.41 1016.67 1017.11 1017.72 1017.92 1018.01 1018.54 1018.46 1018.70 1019.02 1019.31 1019.61 1019.85
1018.10 1017.89 1017.80 1017.59 1017.36 1017.38 1017.12 1016.87 1016.96 1016.85 1017.04 1017.17 1016.90 1017.23 1016.60 1015.60 1015.38 1015.29 1014.82 1014.06 1013.37 1013.42 1013.39 1013.54 1013.82 1014.48 1013.70 1013.29 1014.85 1015.22 1015.11 1016.11 1016.71 1017.20 1017.32 1017.57 1017.89 1017.92 1018.23 1018.55 1018.87 1019.09 1019.41 1019.69
1018.40 1017.96 1017.97 1017.77 1017.12 1017.10 1016.89 1016.92 1017.27 1017.59 1018.01 1018.52 1018.81 1018.34 1017.65 1017.09 1017.22 1016.54 1015.61 1014.73 1013.89 1013.70 1013.83 1013.70 1013.61 1013.74 1013.75 1013.94 1014.24 1014.60 1014.77 1015.77 1016.44 1016.92 1017.39 1017.33 1017.56 1017.81 1018.22 1018.68 1019.08 1019.15 1019.24 1019.55
1018.73 1018.21 1017.87 1017.89 1017.57 1017.17 1017.40 1017.57 1018.86 1019.30 1019.81 1020.09 1019.02 1018.60 1018.06 1017.52 1017.29 1017.12 1016.70 1016.10 1015.33 1014.83 1014.25 1014.11 1013.82 1013.80 1014.12 1014.07 1014.36 1014.76 1015.45 1015.99 1016.38 1016.81 1016.93 1017.00 1017.32 1017.42 1017.62 1018.05 1018.35 1018.78 1019.07 1019.15
1020.11 1018.81 1018.49 1018.43 1018.70 1019.01 1019.09 1019.69 1020.59 1021.29 1021.63 1020.99 1019.48 1019.26 1018.42 1017.88 1017.56 1017.45 1017.00 1016.69 1016.18 1015.63 1015.14 1014.72 1014.26 1014.22 1014.30 1014.52 1014.74 1015.01 1015.66 1015.83 1015.92 1016.14 1016.26 1016.55 1016.69 1017.05 1017.04 1017.19 1017.39 1017.63 1018.07 1018.24
1020.25 1019.65 1018.80 1018.71 1018.73 1019.05 1019.27 1020.07 1020.74 1021.32 1021.92 1021.93 1020.98 1019.71 1018.51 1018.49 1018.45 1018.01 1017.66 1017.22 1016.90 1016.49 1015.79 1015.18 1014.97 1014.65 1014.53 1014.47 1014.66 1015.07 1015.36 1015.51 1015.63 1015.71 1016.07 1016.10 1016.22 1016.18 1016.32 1016.36 1016.59 1016.92 1017.23 1017.40
1020.51 1020.44 1019.41 1018.98 1018.98 1019.16 1019.43 1020.09 1020.85 1021.55 1022.62 1022.57 1021.85 1020.96 1020.28 1020.12 1020.04 1019.52 1018.97 1018.39 1017.80 1017.21 1016.56 1016.27 1016.05 1015.63 1015.39 1015.00 1014.76 1014.73 1014.92 1014.77 1014.67 1014.91 1015.19 1015.20 1015.42 1015.67 1015.48 1015.66 1015.66 1016.06 1016.33 1016.68
1020.49 1021.19 1020.17 1019.60 1019.80 1019.97 1020.08 1020.53 1021.45 1022.43 1023.14 1023.52 1023.29 1021.99 1021.70 1021.77 1021.55 1021.16 1020.65 1020.06 1019.30 1018.62 1018.06 1017.32 1016.76 1016.32 1016.15 1015.84 1015.66 1015.43 1015.01 1014.89 1014.73 1014.76 1014.87 1015.03 1014.98 1014.80 1014.87 1015.01 1014.95 1015.09 1015.50 1015.76
1020.73 1021.33 1021.35 1020.69 1020.29 1020.28 1020.40 1020.98 1021.65 1022.75 1023.70 1023.95 1023.98 1022.79 1022.48 1022.44 1022.34 1021.85 1021.54 1020.82 1020.16 1019.63 1019.18 1018.62 1017.76 1017.14 1016.46 1016.27 1015.96 1015.74 1015.66 1015.34 1015.21 1014.96 1014.94 1014.84 1014.54 1014.63 1014.56 1014.30 1014.45 1014.61 1014.84 1014.96
1020.80 1021.65 1021.91 1021.19 1021.11 1020.85 1020.93 1021.22 1021.63 1022.43 1023.24 1023.88 1024.18 1022.88 1022.80 1022.46 1022.47 1022.89 1022.85 1022.34 1021.64 1020.95 1020.22 1019.46 1018.91 1018.71 1018.17 1017.50 1016.98 1016.39 1015.63 1015.46 1015.23 1015.05 1015.04 1014.68 1014.39 1014.27 1013.75 1013.60 1013.93 1014.20 1014.43 1014.54
1020.86 1021.94 1022.43 1022.45 1021.62 1021.66 1021.72 1021.87 1022.07 1022.86 1023.83 1023.59 1023.26 1022.79 1023.41 1023.67 1023.47 1023.52 1023.73 1023.43 1023.06 1022.52 1021.91 1021.37 1020.62 1020.00 1019.34 1018.66 1017.95 1017.15 1016.69 1015.96 1015.64 1015.36 1015.14 1014.65 1014.21 1013.75 1013.61 1013.60 1013.51 1013.42 1013.84 1014.10
1021.32 1022.03 1022.29 1022.07 1021.74 1021.75 1021.43 1021.28 1021.72 1022.26 1022.44 1023.42 1023.46 1024.22 1025.19 1025.36 1025.25 1024.95 1024.67 1024.27 1023.58 1022.90 1022.47 1022.30 1021.84 1021.09 1020.46 1019.61 1018.81 1018.24 1017.50 1016.92 1016.30 1015.64 1015.06 1014.78 1014.45 1014.02 1013.71 1013.42 1013.20 1013.14 1013.48 1013.60
1022.37 1022.59 1022.83 1022.51 1021.74 1021.96 1021.90 1021.60 1021.89 1022.74 1023.44 1023.54 1023.74 1024.70 1025.83 1025.91 1025.82 1025.63 1025.50 1025.34 1024.89 1024.47 1023.90 1023.18 1022.47 1021.79 1021.09 1020.67 1020.03 1019.33 1018.62 1017.87 1017.09 1016.14 1015.41 1015.10 1014.74 1014.27 1013.79 1013.41 1013.31 1013.07 1012.81 1013.04
1023.30 1023.23 1023.40 1022.57 1022.21 1022.20 1022.11 1022.10 1022.50 1023.63 1024.50 1024.97 1025.46 1026.53 1026.85 1026.67 1026.33 1026.22 1026.37 1026.51 1026.28 1025.74 1025.13 1024.28 1023.54 1022.72 1021.91 1021.21 1020.63 1019.66 1018.69 1017.88 1017.28 1016.60 1015.62 1015.03 1014.46 1013.92 1013.58 1013.37 1013.00 1012.94 1012.80 1012.91
1023.41 1023.98 1024.01 1023.60 1023.14 1023.16 1023.32 1022.81 1023.03 1024.28 1025.66 1026.43 1026.97 1027.61 1028.01 1027.98 1027.48 1026.77 1027.20 1027.02 1026.38 1026.23 1025.74 1025.13 1024.45 1023.45 1022.70 1021.69 1020.67 1019.68 1018.66 1017.70 1016.96 1016.19 1015.36 1014.71 1014.26 1013.87 1013.35 1013.24 1012.63 1012.57 1012.45 1012.41
1023.46 1024.22 1024.47 1024.46 1024.40 1023.83 1024.23 1024.50 1025.26 1025.66 1027.44 1028.04 1028.44 1028.70 1028.71 1028.39 1027.60 1026.90 1027.01 1027.77 1027.88 1027.12 1026.38 1025.65 1025.02 1024.22 1023.04 1021.89 1020.85 1019.93 1018.90 1017.96 1016.95 1016.03 1015.18 1014.39 1014.00 1013.45 1012.91 1012.55 1012.21 1012.06 1012.21 1011.98
1023.78 1024.39 1024.94 1025.27 1025.51 1025.27 1025.62 1026.03 1026.55 1027.01 1028.26 1029.38 1029.61 1029.70 1029.68 1029.29 1028.73 1028.13 1028.35 1028.36 1027.91 1027.46 1026.78 1025.87 1025.06 1024.33 1023.43 1022.25 1021.01 1020.01 1019.16 1018.18 1017.13 1016.05 1014.97 1014.17 1013.60 1013.10 1012.46 1011.92 1011.83 1011.68 1011.56 1011.02
1024.78 1025.25 1025.56 1025.83 1026.29 1026.21 1027.32 1027.22 1027.33 1028.88 1030.59 1030.27 1030.54 1030.48 1030.54 1030.51 1030.62 1029.88 1029.20 1028.31 1027.69 1027.24 1026.44 1025.67 1025.21 1024.39 1023.51 1022.43 1021.27 1020.07 1019.00 1018.13 1017.03 1015.93 1015.03 1013.91 1012.98 1012.61 1011.98 1011.37 1010.88 1011.05 1011.02 1011.03
1025.05 1025.82 1026.29 1026.85 1027.74 1028.33 1028.22 1028.30 1029.53 1031.10 1030.87 1031.18 1031.20 1031.27 1031.18 1031.05 1030.69 1030.11 1029.57 1029.07 1028.21 1027.32 1025.83 1024.70 1024.24 1023.82 1023.16 1022.45 1021.55 1020.29 1019.14 1017.93 1016.83 1015.44 1014.12 1012.93 1011.95 1011.38 1010.94 1010.65 1010.21 1010.20 1010.44 1010.92
1026.36 1027.03 1027.34 1028.09 1028.58 1029.62 1030.33 1030.85 1031.46 1031.65 1031.78 1031.92 1031.91 1031.81 1031.58 1031.19 1030.75 1030.19 1029.68 1029.07 1028.28 1027.33 1026.73 1026.04 1025.24 1023.93 1022.89 1022.13 1021.24 1019.92 1018.89 1017.75 1016.20 1014.77 1013.41 1012.37 1011.25 1010.37 1010.00 1009.87 1009.68 1009.89 1010.05 1010.41
1027.81 1028.26 1028.58 1029.14 1030.15 1030.60 1031.32 1031.92 1032.18 1032.24 1032.39 1032.47 1032.50 1032.30 1032.09 1031.68 1031.09 1030.50 1029.86 1028.93 1028.06 1027.39 1026.64 1026.05 1025.38 1024.49 1023.37 1022.21 1021.09 1020.07 1018.55 1017.17 1015.87 1014.36 1012.96 1011.50 1010.38 1009.48 1009.19 1009.12 1008.99 1008.99 1009.25 1009.59
1029.77 1029.85 1030.17 1030.32 1031.04 1031.55 1032.26 1032.64 1032.89 1032.82 1032.85 1032.76 1032.77 1032.63 1032.49 1032.13 1031.45 1030.87 1029.93 1029.17 1028.56 1027.90 1027.12 1026.49 1025.46 1024.35 1023.29 1022.14 1020.94 1019.78 1018.33 1016.86 1015.34 1013.83 1012.34 1010.90 1009.67 1008.83 1008.35 1008.26 1008.23 1008.25 1008.19 1007.98
1031.20 1031.74 1031.86 1031.83 1032.29 1032.67 1032.97 1033.46 1033.48 1033.41 1033.45 1033.29 1033.16 1032.78 1032.58 1032.45 1031.98 1031.34 1030.46 1029.83 1029.10 1028.15 1027.40 1026.55 1025.73 1024.67 1023.43 1022.11 1020.85 1019.46 1018.15 1016.79 1015.19 1013.44 1011.82 1010.38 1008.94 1008.15 1007.84 1007.55 1007.44 1007.54 1007.59 1007.61
Thickness
5574 5558 5551 5549 5536 5533 5524 5512 5512 5526 5534 5526 5529 5532 5540 5550 5560 5560 5562 5565 5573 5580 5582 5584 5598 5611 5613 5609 5605 5610 5620 5624 5624 5622 5621 5622 5626 5628 5631 5636 5639 5642 5644 5645
5566 5563 5563 5554 5549 5541 5534 5532 5525 5531 5535 5530 5529 5535 5541 5553 5560 5563 5566 5566 5572 5576 5581 5581 5596 5602 5601 5598 5591 5598 5606 5612 5617 5620 5620 5620 5620 5622 5625 5628 5632 5636 5640 5642
5565 5569 5560 5556 5552 5543 5539 5536 5526 5520 5529 5534 5529 5533 5533 5546 5556 5560 5566 5571 5577 5576 5582 5581 5580 5589 5596 5598 5593 5591 5598 5601 5608 5609 5611 5613 5615 5618 5622 5626 5629 5631 5632 5634
5563 5565 5558 5554 5555 5544 5532 5538 5530 5530 5529 5525 5521 5517 5536 5534 5546 5553 5557 5563 5572 5579 5579 5581 5581 5589 5588 5600 5596 5593 5590 5593 5598 5600 5602 5608 5614 5615 5619 5620 5620 5622 5623 5624
5568 5562 5556 5555 5555 5547 5544 5538 5538 5538 5531 5528 5521 5515 5528 5535 5540 5542 5547 5557 5567 5574 5579 5579 5581 5579 5589 5598 5584 5583 5589 5591 5593 5593 5597 5602 5606 5611 5611 5613 5614 5616 5616 5616
5559 5558 5558 5555 5553 5553 5547 5545 5539 5522 5518 5506 5509 5507 5523 5526 5529 5534 5544 5555 5567 5575 5575 5578 5583 5584 5587 5593 5588 5591 5594 5586 5586 5588 5588 5594 5598 5601 5603 5602 5602 5604 5606 5606
5553 5558 5555 5553 5551 5552 5542 5530 5508 5510 5499 5508 5509 5511 5527 5530 5532 5536 5538 5541 5552 5563 5574 5576 5580 5583 5583 5587 5586 5585 5579 5578 5576 5582 5585 5587 5589 5592 5596 5596 5597 5596 5597 5599
5531 5528 5546 5545 5542 5534 5530 5521 5494 5519 5496 5494 5507 5520 5525 5531 5533 5533 5539 5543 5546 5552 5559 5571 5576 5580 5580 5580 5582 5581 5577 5576 5575 5575 5579 5579 5584 5586 5588 5590 5592 5594 5593 5594
5533 5538 5541 5544 5540 5537 5533 5515 5519 5505 5500 5491 5498 5521 5536 5525 5523 5530 5530 5543 5542 5543 5549 5560 5565 5571 5577 5579 5578 5577 5575 5574 5572 5574 5574 5576 5577 5581 5582 5581 5584 5585 5585 5586
5536 5527 5538 5539 5539 5536 5533 5529 5516 5496 5505 5506 5500 5503 5502 5511 5513 5520 5525 5529 5531 5535 5540 5545 5547 5552 5559 5565 5569 5572 5572 5576 5575 5576 5574 5576 5575 5575 5579 5579 5582 5582 5580 5578
5533 5521 5534 5532 5530 5527 5519 5518 5504 5494 5491 5494 5483 5510 5511 5503 5501 5503 5507 5512 5513 5522 5527 5534 5539 5541 5543 5546 5549 5554 5559 5560 5563 5564 5564 5566 5569 5572 5574 5576 5578 5577 5575 5573
5529 5512 5512 5529 5526 5521 5523 5522 5504 5496 5499 5480 5477 5489 5500 5495 5497 5501 5499 5505 5509 5511 5513 5518 5524 5528 5536 5538 5541 5544 5544 5547 5548 5551 5553 5555 5559 5559 5560 5565 5565 5566 5565 5566
5531 5511 5500 5522 5525 5522 5520 5520 5512 5497 5489 5489 5482 5499 5492 5495 5495 5491 5487 5492 5497 5499 5503 5508 5512 5511 5514 5520 5523 5528 5536 5538 5540 5542 5543 5546 5549 5550 5556 5558 5555 5553 5553 5554
5529 5506 5508 5492 5518 5514 5508 5506 5509 5506 5477 5495 5490 5508 5479 5479 5481 5481 5476 5478 5479 5481 5484 5484 5487 5491 5496 5499 5503 5511 5516 5522 5524 5529 5530 5533 5538 5541 5542 5542 5545 5547 5543 5542
5521 5512 5494 5505 5504 5507 5511 5515 5504 5492 5503 5501 5505 5496 5466 5463 5464 5466 5464 5464 5466 5470 5472 5470 5470 5473 5475 5481 5486 5489 5495 5499 5505 5511 5516 5518 5521 5524 5527 5530 5533 5534 5531 5531
5501 5509 5504 5497 5507 5503 5505 5506 5499 5495 5494 5489 5496 5483 5455 5454 5452 5457 5452 5448 5448 5447 5448 5452 5458 5463 5465 5464 5466 5469 5473 5478 5484 5492 5498 5500 5502 5508 5513 5516 5518 5522 5525 5523
5500 5495 5498 5501 5503 5501 5509 5513 5504 5475 5472 5468 5477 5453 5439 5439 5442 5438 5433 5427 5426 5427 5429 5432 5433 5439 5446 5448 5451 5457 5463 5466 5469 5473 5481 5485 5491 5496 5497 5500 5505 5506 5508 5508
5488 5481 5485 5481 5490 5487 5482 5478 5483 5468 5452 5443 5438 5428 5422 5420 5420 5422 5413 5410 5412 5411 5411 5412 5414 5418 5419 5426 5434 5442 5449 5455 5459 5463 5468 5471 5475 5480 5484 5485 5491 5491 5494 5494
5480 5474 5472 5474 5465 5483 5466 5458 5454 5450 5427 5415 5410 5405 5402 5400 5403 5412 5401 5390 5385 5388 5391 5393 5393 5395 5402 5407 5413 5420 5429 5434 5441 5446 5452 5459 5461 5466 5471 5475 5479 5481 5479 5481
5469 5462 5461 5455 5461 5470 5441 5429 5425 5418 5431 5393 5385 5381 5376 5377 5383 5388 5368 5364 5363 5363 5365 5369 5372 5374 5378 5384 5392 5398 5402 5408 5416 5426 5436 5442 5446 5449 5457 5462 5463 5464 5466 5472
5452 5448 5449 5445 5443 5449 5399 5403 5403 5422 5389 5366 5362 5359 5352 5346 5342 5345 5347 5349 5349 5347 5350 5352 5351 5354 5357 5361 5368 5374 5379 5384 5394 5403 5411 5421 5429 5431 5435 5443 5449 5448 5451 5452
5460 5443 5438 5433 5429 5436 5381 5387 5393 5349 5350 5343 5338 5333 5329 5326 5323 5321 5320 5318 5320 5325 5335 5341 5340 5335 5336 5338 5342 5351 5356 5361 5367 5379 5393 5405 5414 5419 5424 5426 5433 5434 5433 5432
5439 5416 5420 5408 5398 5361 5353 5344 5336 5328 5321 5316 5311 5307 5305 5303 5302 5302 5300 5298 5299 5301 5300 5301 5302 5309 5311 5312 5315 5325 5331 5339 5350 5358 5369 5377 5389 5399 5401 5405 5413 5413 5415 5416
5392 5377 5388 5375 5353 5340 5330 5320 5312 5307 5299 5292 5287 5283 5278 5275 5276 5275 5273 5275 5276 5274 5275 5274 5274 5274 5277 5281 5284 5288 5297 5306 5317 5333 5343 5353 5364 5375 5378 5380 5388 5395 5398 5400
5360 5359 5351 5348 5328 5318 5305 5294 5285 5281 5274 5269 5262 5258 5254 5251 5251 5249 5251 5252 5250 5249 5250 5249 5253 5256 5258 5260 5263 5267 5274 5281 5291 5304 5316 5328 5339 5349 5354 5357 5364 5371 5379 5387
5331 5319 5319 5317 5298 5285 5280 5267 5260 5253 5247 5243 5238 5233 5230 5228 5226 5225 5226 5227 5229 5235 5235 5238 5239 5241 5245 5248 5250 5255 5258 5264 5274 5288 5301 5312 5322 5328 5331 5337 5342 5348 5355 5363